Flag for Belgium Weather past 2 weeks in Ghent, Belgium

Now
39 °F

Chilly.


Feels Like: 36 °F
Forecast: 35 / 52 °F
Wind: 3 mph from West

Location: Munte

Current Time: Mar 27, 2015 at 7:16:22 AM

Latest Report: Mar 27, 2015 at 6:00 AM


Visibility: 10 mi

Pressure: 30.01 "Hg

Humidity: 85%

Dew point: 35 °F

Location of GhentLocation

Historic Weather in Ghent — Graph

°F

Ghent temperature yesterday

Maximum temperature yesterday: 46 °F (at 8:00 PM)
Minimum temperature yesterday: 33 °F (at 6:00 AM)
Average temperature yesterday: 39 °F

Past Weeks' High & Low Weather Summary

 TemperatureHumidityPressure
High61 °F (Mar 17, 4:00 PM)100% (Mar 18, 5:00 AM)30.45 "Hg (Mar 18, 5:00 AM)
Low28 °F (Mar 23, 7:00 AM)26% (Mar 12, 2:00 PM)29.67 "Hg (Mar 26, 4:00 PM)
Average42 °F81%30.17 "Hg
* Reported Mar 12 6:00 AM — Mar 27 6:00 AM, Ghent, Weather by CustomWeather, © 2015

Note: Actual official high and low records may vary slightly from our data, if they occured in-between our weather recording intervals... More about our weather records

Advertising

Ghent weather history for previous 24 hours

 ConditionsComfort  
Time TempWeatherWind HumidityBarometerVisibility
6:00 AM
Fri, Mar 27
39 °FChilly.3 mph85%30.01 "Hg10 mi
5:00 AM39 °FChilly.2 mph85%29.99 "Hg10 mi
3:00 AM40 °FQuite cool.2 mph79%29.94 "Hg12 mi
2:00 AM41 °FQuite cool.3 mph74%29.93 "Hg14 mi
1:00 AM41 °FQuite cool.2 mph76%29.91 "Hg14 mi
12:00 AM42 °FQuite cool.3 mph75%29.88 "Hg15 mi
11:00 PM
Thu, Mar 26
41 °FQuite cool.2 mph81%29.86 "Hg13 mi
9:00 PM45 °FQuite cool.2 mph80%29.81 "Hg12 mi
8:00 PM46 °FCool.2 mph87%29.77 "Hg12 mi
7:00 PM45 °FCool.3 mph96%29.74 "Hg10 mi
6:00 PM44 °FLight rain. Cloudy.3 mph99%29.71 "Hg5 mi
5:00 PM43 °FQuite cool.6 mph97%29.68 "Hg4 mi
4:00 PM42 °FDrizzle. Cloudy.7 mph97%29.67 "Hg2 mi
3:00 PM41 °FLight rain. Cloudy.9 mph94%29.68 "Hg4 mi
2:00 PM41 °FLight rain. Cloudy.8 mph93%29.68 "Hg3 mi
1:00 PM42 °FDrizzle. Cloudy.9 mph80%29.69 "Hg4 mi
12:00 PM42 °FDrizzle. Cloudy.8 mph78%29.72 "Hg6 mi
11:00 AM42 °FQuite cool.9 mph77%29.74 "Hg9 mi
10:00 AM41 °FQuite cool.7 mph81%29.76 "Hg7 mi
9:00 AM39 °FChilly.6 mph89%29.78 "Hg5 mi
8:00 AM36 °FFog.5 mph96%29.80 "Hg2 mi
7:00 AM34 °FFog.3 mph97%29.81 "Hg2 mi
Weather by CustomWeather, © 2015

See weather overviewHow to use our weather pages